Time,TemperatureF,DewpointF,PressureIn,WindDirection,WindDirectionDegrees,WindSpeedMPH,WindSpeedGustMPH,Humidity,HourlyPrecipIn,Conditions,Clouds,dailyrainin,SoftwareType,DateUTC
2013-05-31 00:13:00,77.4,74.0,29.93,SSE,148,5.0,10.0,89,0.00,,,0.00,weatherlink.com 1.10,2013-05-31 05:13:00,
2013-05-31 00:28:00,77.2,74.0,29.92,SE,131,7.0,9.0,90,0.00,,,0.00,weatherlink.com 1.10,2013-05-31 05:28:00,
2013-05-31 00:43:00,77.0,74.0,29.91,SE,142,4.0,9.0,90,0.00,,,0.00,weatherlink.com 1.10,2013-05-31 05:43:00,
2013-05-31 00:58:00,76.8,74.0,29.91,South,181,4.0,9.0,91,0.00,,,0.00,weatherlink.com 1.10,2013-05-31 05:58:00,
2013-05-31 01:13:00,76.8,74.0,29.90,South,190,4.0,11.0,91,0.00,,,0.00,weatherlink.com 1.10,2013-05-31 06:13:00,
2013-05-31 01:28:00,76.7,74.0,29.90,SSE,149,4.0,9.0,92,0.00,,,0.00,weatherlink.com 1.10,2013-05-31 06:28:00,
2013-05-31 01:43:00,76.5,74.0,29.90,SSE,157,3.0,7.0,92,0.00,,,0.00,weatherlink.com 1.10,2013-05-31 06:43:00,
2013-05-31 01:58:00,76.5,74.0,29.90,SE,130,5.0,8.0,93,0.00,,,0.00,weatherlink.com 1.10,2013-05-31 06:58:00,
2013-05-31 02:13:00,76.5,74.0,29.89,SSE,155,3.0,8.0,93,0.00,,,0.00,weatherlink.com 1.10,2013-05-31 07:13:00,
2013-05-31 02:28:00,76.4,74.0,29.89,South,178,5.0,6.0,93,0.00,,,0.00,weatherlink.com 1.10,2013-05-31 07:28:00,
2013-05-31 02:43:00,76.2,74.0,29.89,SSW,192,3.0,8.0,93,0.00,,,0.00,weatherlink.com 1.10,2013-05-31 07:43:00,
2013-05-31 02:58:00,76.0,74.0,29.88,ESE,122,3.0,9.0,94,0.00,,,0.00,weatherlink.com 1.10,2013-05-31 07:58:00,
2013-05-31 03:13:00,75.8,74.0,29.88,ESE,123,3.0,7.0,94,0.00,,,0.00,weatherlink.com 1.10,2013-05-31 08:13:00,
2013-05-31 03:28:00,75.8,74.0,29.88,SE,130,3.0,5.0,95,0.00,,,0.00,weatherlink.com 1.10,2013-05-31 08:28:00,
2013-05-31 03:43:00,75.7,74.0,29.87,SE,130,1.0,7.0,95,0.00,,,0.00,weatherlink.com 1.10,2013-05-31 08:43:00,
2013-05-31 03:58:00,75.7,74.0,29.87,SE,128,1.0,5.0,95,0.00,,,0.00,weatherlink.com 1.10,2013-05-31 08:58:00,
2013-05-31 04:13:00,75.9,74.0,29.87,SE,144,3.0,7.0,95,0.00,,,0.00,weatherlink.com 1.10,2013-05-31 09:13:00,
2013-05-31 04:28:00,76.1,75.0,29.88,SE,136,0.0,5.0,95,0.00,,,0.00,weatherlink.com 1.10,2013-05-31 09:28:00,
2013-05-31 04:43:00,76.4,75.0,29.88,SE,140,2.0,5.0,95,0.00,,,0.00,weatherlink.com 1.10,2013-05-31 09:43:00,
2013-05-31 04:58:00,76.5,75.0,29.89,SSE,165,1.0,6.0,95,0.00,,,0.00,weatherlink.com 1.10,2013-05-31 09:58:00,
2013-05-31 05:13:00,76.4,75.0,29.89,SE,128,0.0,4.0,95,0.00,,,0.00,weatherlink.com 1.10,2013-05-31 10:13:00,
2013-05-31 05:28:00,76.2,75.0,29.89,ESE,121,0.0,3.0,95,0.00,,,0.00,weatherlink.com 1.10,2013-05-31 10:28:00,
2013-05-31 05:43:00,76.1,75.0,29.89,ESE,115,1.0,2.0,95,0.00,,,0.00,weatherlink.com 1.10,2013-05-31 10:43:00,
2013-05-31 05:58:00,76.1,75.0,29.90,ESE,111,0.0,4.0,96,0.00,,,0.00,weatherlink.com 1.10,2013-05-31 10:58:00,
2013-05-31 06:13:00,76.0,75.0,29.91,ESE,107,1.0,3.0,96,0.00,,,0.00,weatherlink.com 1.10,2013-05-31 11:13:00,
2013-05-31 06:28:00,76.2,75.0,29.91,SE,130,1.0,4.0,96,0.00,,,0.00,weatherlink.com 1.10,2013-05-31 11:28:00,
2013-05-31 06:43:00,76.5,76.0,29.92,ESE,115,1.0,4.0,97,0.00,,,0.00,weatherlink.com 1.10,2013-05-31 11:43:00,
2013-05-31 06:58:00,77.0,76.0,29.92,SE,133,0.0,2.0,96,0.00,,,0.00,weatherlink.com 1.10,2013-05-31 11:58:00,
2013-05-31 07:14:00,77.8,77.0,29.93,ENE,72,2.0,3.0,96,0.00,,,0.00,weatherlink.com 1.10,2013-05-31 12:14:00,
2013-05-31 07:29:00,78.5,77.0,29.93,ESE,119,2.0,4.0,94,0.00,,,0.00,weatherlink.com 1.10,2013-05-31 12:29:00,
2013-05-31 07:44:00,79.3,77.0,29.93,SSE,164,2.0,3.0,93,0.00,,,0.00,weatherlink.com 1.10,2013-05-31 12:44:00,
2013-05-31 07:59:00,79.7,77.0,29.94,SE,138,1.0,6.0,91,0.00,,,0.00,weatherlink.com 1.10,2013-05-31 12:59:00,
2013-05-31 08:14:00,80.5,77.0,29.94,ESE,119,4.0,7.0,90,0.00,,,0.00,weatherlink.com 1.10,2013-05-31 13:14:00,
2013-05-31 08:29:00,80.7,77.0,29.94,SE,127,2.0,6.0,89,0.00,,,0.00,weatherlink.com 1.10,2013-05-31 13:29:00,
2013-05-31 08:44:00,81.7,78.0,29.94,SSE,147,0.0,7.0,88,0.00,,,0.00,weatherlink.com 1.10,2013-05-31 13:44:00,
2013-05-31 08:59:00,82.4,78.0,29.94,South,180,4.0,9.0,86,0.00,,,0.00,weatherlink.com 1.10,2013-05-31 13:59:00,
2013-05-31 09:14:00,83.2,78.0,29.94,South,188,3.0,6.0,85,0.00,,,0.00,weatherlink.com 1.10,2013-05-31 14:14:00,
2013-05-31 09:29:00,83.8,78.0,29.94,SSE,159,4.0,9.0,82,0.00,,,0.00,weatherlink.com 1.10,2013-05-31 14:29:00,
2013-05-31 09:44:00,84.1,77.0,29.94,South,183,6.0,10.0,80,0.00,,,0.00,weatherlink.com 1.10,2013-05-31 14:44:00,
2013-05-31 09:59:00,82.6,77.0,29.94,South,169,5.0,9.0,82,0.00,,,0.00,weatherlink.com 1.10,2013-05-31 14:59:00,
2013-05-31 10:14:00,82.9,77.0,29.94,SSE,167,5.0,8.0,83,0.00,,,0.00,weatherlink.com 1.10,2013-05-31 15:14:00,
2013-05-31 10:29:00,83.4,79.0,29.94,SSE,159,2.0,7.0,85,0.00,,,0.00,weatherlink.com 1.10,2013-05-31 15:29:00,
2013-05-31 10:44:00,84.5,77.0,29.93,South,173,3.0,10.0,78,0.00,,,0.00,weatherlink.com 1.10,2013-05-31 15:44:00,
2013-05-31 10:59:00,83.1,76.0,29.94,South,182,2.0,10.0,80,0.00,,,0.00,weatherlink.com 1.10,2013-05-31 15:59:00,
2013-05-31 11:14:00,83.4,77.0,29.93,SSW,192,1.0,5.0,82,0.00,,,0.00,weatherlink.com 1.10,2013-05-31 16:14:00,
2013-05-31 11:29:00,84.5,77.0,29.93,SSE,163,3.0,9.0,79,0.00,,,0.00,weatherlink.com 1.10,2013-05-31 16:29:00,
2013-05-31 11:44:00,84.9,78.0,29.93,South,178,3.0,9.0,79,0.00,,,0.00,weatherlink.com 1.10,2013-05-31 16:44:00,
2013-05-31 11:59:00,86.0,78.0,29.92,South,184,6.0,11.0,76,0.00,,,0.00,weatherlink.com 1.10,2013-05-31 16:59:00,
2013-05-31 12:14:00,86.0,77.0,29.93,SSE,159,2.0,7.0,75,0.00,,,0.00,weatherlink.com 1.10,2013-05-31 17:14:00,
2013-05-31 12:29:00,86.3,77.0,29.93,SSE,164,9.0,11.0,74,0.00,,,0.00,weatherlink.com 1.10,2013-05-31 17:29:00,
2013-05-31 12:44:00,84.7,77.0,29.93,South,169,5.0,10.0,78,0.00,,,0.00,weatherlink.com 1.10,2013-05-31 17:44:00,
2013-05-31 12:59:00,85.3,77.0,29.93,SSE,159,4.0,14.0,76,0.00,,,0.00,weatherlink.com 1.10,2013-05-31 17:59:00,
2013-05-31 13:14:00,85.5,78.0,29.93,South,186,8.0,13.0,77,0.00,,,0.00,weatherlink.com 1.10,2013-05-31 18:14:00,
2013-05-31 13:29:00,86.1,77.0,29.92,SSE,160,6.0,16.0,75,0.00,,,0.00,weatherlink.com 1.10,2013-05-31 18:29:00,
2013-05-31 13:44:00,86.3,77.0,29.92,South,180,4.0,12.0,73,0.00,,,0.00,weatherlink.com 1.10,2013-05-31 18:44:00,
2013-05-31 13:59:00,86.8,76.0,29.92,SSE,148,9.0,15.0,71,0.00,,,0.00,weatherlink.com 1.10,2013-05-31 18:59:00,
2013-05-31 14:14:00,86.6,75.0,29.91,SSE,157,7.0,15.0,69,0.00,,,0.00,weatherlink.com 1.10,2013-05-31 19:14:00,
2013-05-31 14:29:00,86.3,75.0,29.91,SSW,192,9.0,13.0,69,0.00,,,0.00,weatherlink.com 1.10,2013-05-31 19:29:00,
2013-05-31 14:44:00,86.5,74.0,29.91,South,186,7.0,15.0,67,0.00,,,0.00,weatherlink.com 1.10,2013-05-31 19:44:00,
2013-05-31 14:59:00,86.3,75.0,29.91,SE,146,10.0,12.0,69,0.00,,,0.00,weatherlink.com 1.10,2013-05-31 19:59:00,
2013-05-31 15:14:00,86.5,75.0,29.91,SSE,159,5.0,13.0,68,0.00,,,0.00,weatherlink.com 1.10,2013-05-31 20:14:00,
2013-05-31 15:29:00,86.8,76.0,29.90,South,191,2.0,9.0,70,0.00,,,0.00,weatherlink.com 1.10,2013-05-31 20:29:00,
2013-05-31 15:44:00,86.1,75.0,29.90,SSW,193,5.0,13.0,70,0.00,,,0.00,weatherlink.com 1.10,2013-05-31 20:44:00,
2013-05-31 15:59:00,85.7,75.0,29.90,SSE,160,4.0,10.0,71,0.00,,,0.00,weatherlink.com 1.10,2013-05-31 20:59:00,
2013-05-31 16:14:00,85.6,76.0,29.89,South,172,6.0,10.0,72,0.00,,,0.00,weatherlink.com 1.10,2013-05-31 21:14:00,
2013-05-31 16:29:00,85.4,76.0,29.89,SSE,150,4.0,13.0,74,0.00,,,0.00,weatherlink.com 1.10,2013-05-31 21:29:00,
2013-05-31 16:44:00,84.9,76.0,29.89,SSE,161,5.0,12.0,74,0.00,,,0.00,weatherlink.com 1.10,2013-05-31 21:44:00,
2013-05-31 16:59:00,84.7,76.0,29.89,SE,144,6.0,11.0,75,0.00,,,0.00,weatherlink.com 1.10,2013-05-31 21:59:00,
2013-05-31 17:14:00,84.4,76.0,29.89,South,171,3.0,12.0,75,0.00,,,0.00,weatherlink.com 1.10,2013-05-31 22:14:00,
2013-05-31 17:29:00,84.3,76.0,29.88,South,178,5.0,14.0,76,0.00,,,0.00,weatherlink.com 1.10,2013-05-31 22:29:00,
2013-05-31 17:44:00,84.5,76.0,29.88,SE,142,3.0,11.0,75,0.00,,,0.00,weatherlink.com 1.10,2013-05-31 22:44:00,
2013-05-31 17:59:00,84.3,76.0,29.88,SSE,167,4.0,11.0,75,0.00,,,0.00,weatherlink.com 1.10,2013-05-31 22:59:00,
2013-05-31 18:14:00,84.1,76.0,29.88,SE,134,5.0,12.0,76,0.00,,,0.00,weatherlink.com 1.10,2013-05-31 23:14:00,
2013-05-31 18:29:00,83.8,76.0,29.88,SE,137,5.0,8.0,77,0.00,,,0.00,weatherlink.com 1.10,2013-05-31 23:29:00,
2013-05-31 18:44:00,83.4,76.0,29.88,South,173,10.0,10.0,78,0.00,,,0.00,weatherlink.com 1.10,2013-05-31 23:44:00,
2013-05-31 18:59:00,83.1,76.0,29.88,SSE,152,6.0,9.0,79,0.00,,,0.00,weatherlink.com 1.10,2013-05-31 23:59:00,
2013-05-31 19:14:00,82.7,76.0,29.88,South,181,5.0,9.0,79,0.00,,,0.00,weatherlink.com 1.10,2013-06-01 00:14:00,
2013-05-31 19:29:00,82.5,75.0,29.89,South,175,4.0,9.0,79,0.00,,,0.00,weatherlink.com 1.10,2013-06-01 00:29:00,
2013-05-31 19:45:00,82.1,76.0,29.89,South,178,6.0,9.0,81,0.00,,,0.00,weatherlink.com 1.10,2013-06-01 00:45:00,
2013-05-31 20:00:00,81.8,76.0,29.89,SSE,153,6.0,7.0,82,0.00,,,0.00,weatherlink.com 1.10,2013-06-01 01:00:00,
2013-05-31 20:15:00,81.5,76.0,29.89,SSE,165,3.0,9.0,84,0.00,,,0.00,weatherlink.com 1.10,2013-06-01 01:15:00,
2013-05-31 20:30:00,81.1,77.0,29.89,South,175,4.0,8.0,86,0.00,,,0.00,weatherlink.com 1.10,2013-06-01 01:30:00,
2013-05-31 20:45:00,80.9,76.0,29.89,South,187,5.0,7.0,86,0.00,,,0.00,weatherlink.com 1.10,2013-06-01 01:45:00,
2013-05-31 21:00:00,80.6,77.0,29.89,SE,126,5.0,10.0,87,0.00,,,0.00,weatherlink.com 1.10,2013-06-01 02:00:00,
2013-05-31 21:15:00,79.9,76.0,29.89,South,174,3.0,7.0,87,0.00,,,0.00,weatherlink.com 1.10,2013-06-01 02:15:00,
2013-05-31 21:30:00,79.4,76.0,29.89,South,178,3.0,6.0,88,0.00,,,0.00,weatherlink.com 1.10,2013-06-01 02:30:00,
2013-05-31 21:45:00,79.0,76.0,29.88,SE,127,1.0,5.0,89,0.00,,,0.00,weatherlink.com 1.10,2013-06-01 02:45:00,
2013-05-31 22:00:00,78.6,76.0,29.89,SSE,156,2.0,7.0,90,0.00,,,0.00,weatherlink.com 1.10,2013-06-01 03:00:00,
2013-05-31 22:15:00,78.2,75.0,29.89,South,172,1.0,5.0,91,0.00,,,0.00,weatherlink.com 1.10,2013-06-01 03:15:00,
2013-05-31 22:30:00,78.1,75.0,29.88,South,169,1.0,5.0,91,0.00,,,0.00,weatherlink.com 1.10,2013-06-01 03:30:00,
2013-05-31 22:45:00,77.8,75.0,29.88,SSE,159,1.0,4.0,92,0.00,,,0.00,weatherlink.com 1.10,2013-06-01 03:45:00,
2013-05-31 23:00:00,77.7,76.0,29.88,SSE,163,3.0,5.0,93,0.00,,,0.00,weatherlink.com 1.10,2013-06-01 04:00:00,
2013-05-31 23:15:00,77.6,76.0,29.88,SE,140,2.0,5.0,93,0.00,,,0.00,weatherlink.com 1.10,2013-06-01 04:15:00,
2013-05-31 23:30:00,77.6,76.0,29.88,SSE,148,2.0,5.0,94,0.00,,,0.00,weatherlink.com 1.10,2013-06-01 04:30:00,
2013-05-31 23:45:00,77.5,76.0,29.89,SE,127,3.0,6.0,94,0.00,,,0.00,weatherlink.com 1.10,2013-06-01 04:45:00,